This is the latest recevied weather packets stored in our database for station/object SR9WXM. If no packets are shown the sender has not sent any weather packets the latest 1 day(s).
| Time | Temp. | Humidity | Pressure | Rain* | Wind** | Luminosity | Snow |
|---|---|---|---|---|---|---|---|
| 1836274767 | 14.44° C | 100% | 0 hPa | - | 2.24 m/s, 208° | - | - |
| 1836274647 | 14.44° C | 100% | 0 hPa | - | 2.68 m/s, 216° | - | - |
| 1836274527 | 14.44° C | 100% | 0 hPa | - | 2.24 m/s, 218° | - | - |
| 1836274499 | 14.44° C | 100% | 0 hPa | - | 2.68 m/s, 213° | - | - |
| 1836274407 | 14.44° C | 100% | 0 hPa | - | 2.24 m/s, 214° | - | - |
| 1836274379 | 14.44° C | 100% | 0 hPa | - | 2.68 m/s, 207° | - | - |
| 1836274285 | 14.44° C | 100% | 0 hPa | - | 2.24 m/s, 216° | - | - |
| 1836274259 | 14.44° C | 100% | 0 hPa | - | 2.68 m/s, 208° | - | - |
| 1836274165 | 14.44° C | 100% | 0 hPa | - | 2.24 m/s, 219° | - | - |
| 1836274137 | 14.44° C | 100% | 0 hPa | - | 2.68 m/s, 203° | - | - |
| 1836274045 | 14.44° C | 100% | 0 hPa | - | 2.24 m/s, 214° | - | - |
| 1836273925 | 14.44° C | 100% | 0 hPa | - | 2.24 m/s, 194° | - | - |
| 1778031167 | 11.11° C | 100% | 0 hPa | - | 8.94 m/s, 188° | - | - |
| 1778030927 | 11.11° C | 100% | 0 hPa | - | 8.49 m/s, 189° | - | - |
| 1778030685 | 11.11° C | 100% | 0 hPa | - | 8.49 m/s, 191° | - | - |
| 1778030444 | 11.11° C | 100% | 0 hPa | - | 8.05 m/s, 185° | - | - |
| 1778030204 | 11.11° C | 100% | 0 hPa | - | 7.15 m/s, 186° | - | - |
| 1778029964 | 11.11° C | 100% | 0 hPa | - | 6.71 m/s, 179° | - | - |
| 1778029724 | 11.11° C | 100% | 0 hPa | - | 6.26 m/s, 184° | - | - |
| 1778029482 | 11.67° C | 100% | 0 hPa | - | 6.26 m/s, 192° | - | - |
| 1778029242 | 11.67° C | 100% | 0 hPa | - | 6.71 m/s, 178° | - | - |
| 1778029002 | 11.67° C | 100% | 0 hPa | - | 6.71 m/s, 169° | - | - |
| 1778028762 | 11.67° C | 100% | 0 hPa | - | 8.05 m/s, 200° | - | - |
| 1778028522 | 11.67° C | 100% | 0 hPa | - | 8.94 m/s, 195° | - | - |
| 1778028281 | 11.67° C | 100% | 0 hPa | - | 8.05 m/s, 172° | - | - |
* Rain since midnight (hover to see other rain measurements)
** Current wind speed in m/s (hover to see current wind gust speed)